Regional Weather Roundup
Issued by NWS

Home | Current Version | Previous Version | Text Only | Print | Product List | Glossary Off
Versions: 1 2 3 4 5 6 7 8 9 10 11 12 13 14 15 16 17 18 19 20 21 22 23 24 25 26 27 28 29 30 31 32 33 34 35 36 37 38 39 40 41 42 43 44 45 46 47 48 49 50

213
ASUS45 KCYS 280310
RWRWY

WYOMING REGIONAL WEATHER ROUNDUP
NATIONAL WEATHER SERVICE CHEYENNE WY
900 PM MDT SAT AUG 27 2016

NOTE:  "FAIR" INDICATES FEW OR NO CLOUDS BELOW 12,000 FEET
WITH NO SIGNIFICANT WEATHER AND/OR OBSTRUCTIONS TO VISIBILITY.

WYZ001-280400-
YELLOWSTONE NATIONAL PARK

CITY           SKY/WX    TMP DP  RH WIND       PRES   REMARKS
LK YELLOWSTONE   N/A     50  30  46 CALM      30.23R
W YELLOWSTONE  NOT AVBL

$$
WYZ002>013-054>058-071-098>099-280400-
NORTHERN WYOMING

CITY           SKY/WX    TMP DP  RH WIND       PRES   REMARKS
JACKSON        NOT AVBL
CODY           FAIR      72  30  21 CALM      29.97R
GREYBULL       FAIR      74  33  22 E3        29.88R
WORLAND        FAIR      69  29  22 SE10      29.90R
SHERIDAN       FAIR      61  45  55 CALM      29.90R
BUFFALO        FAIR      65  35  33 W8        29.99R
GILLETTE       FAIR      61  38  42 CALM      29.95R
HULETT         FAIR      64  45  48 S8        29.95R
NEWCASTLE      FAIR      70  36  28 E9        29.95R

$$
WYZ014>020-022>026-101>103-280400-
CENTRAL WYOMING

CITY           SKY/WX    TMP DP  RH WIND       PRES   REMARKS
BIG PINEY      FAIR      54  30  40 N8        30.18R
PINEDALE       FAIR      52  30  43 NW6       30.19R
DUBOIS         FAIR      61  19  20 W14       30.16R
LANDER         FAIR      70  27  20 SW12      30.01R
RIVERTON       FAIR      72  27  18 SE3       30.02R
CASPER         FAIR      58  39  49 SW3       30.03R
DOUGLAS        FAIR      64  31  28 SW5       30.02R

$$
WYZ021-027>030-104>119-280400-
SOUTHERN WYOMING

CITY           SKY/WX    TMP DP  RH WIND       PRES   REMARKS
EVANSTON       FAIR      61  22  22 SW8       30.21R
FORT BRIDGER   FAIR      64  17  16 W7        30.22R
ROCK SPRINGS   FAIR      67  19  16 W12       30.16R
DIXON          FAIR      65  26  23 S8        30.20R
RAWLINS        FAIR      64  23  21 SW7       30.17R
SARATOGA       FAIR      61  28  29 S17       30.21R
LARAMIE        FAIR      57  28  33 W9        30.21R
CHEYENNE       FAIR      63  41  44 SW8       30.14R
TORRINGTON     FAIR      67  51  56 SE8       29.98R
PINE BLUFFS    FAIR      63  43  48 S7        30.08R

$$




USA.gov is the U.S. government's official web portal to all federal, state and local government web resources and services.